Regional Weather Roundup
Issued by NWS Wakefield, VA

Home | Current Version | Previous Version | Graphics & Text | Print | Product List | Glossary On
Versions: 1 2 3 4 5 6 7 8 9 10 11 12 13 14 15 16 17 18 19 20 21 22 23 24 25 26 27 28 29 30 31 32 33 34 35 36 37 38 39 40 41 42 43 44 45 46 47 48 49 50
000
ASUS41 KAKQ 021215
RWRAKQ

REGIONAL WEATHER ROUNDUP
NATIONAL WEATHER SERVICE WAKEFIELD VA
800 AM EDT SUN AUG 02 2015

Note: "fair" indicates few or no clouds below 12,000 feet with no
significant weather and/or obstructions to visibility. * = Denotes
station may not report precipitation (e.g., rain,snow,etc.),
thunder or fog.

VAZ042-051-052>054-056-021300-
NORTHERN VIRGINIA

CITY           SKY/WX    TMP DP  RH WIND       PRES   REMARKS
WASH NATIONAL  PTSUNNY   77  61  57 CALM      29.95R
DULLES         PTSUNNY   72  60  66 CALM      29.96R
FORT BELVOIR   NOT AVBL
QUANTICO       NOT AVBL
FREDERICKSBRG* PTSUNNY   72  64  77 CALM      29.95R
STAFFORD*      MOSUNNY   67  62  83 W3        29.99S
WARRENTON      MOSUNNY   67  66  94 CALM      29.96S
CULPEPER*      MOSUNNY   65  63  93 CALM      29.98S
MANASSAS*      PTSUNNY   64  64 100 CALM      29.96R
LEESBURG*      SUNNY     72  64  78 CALM      29.97S
WINCHESTER     SUNNY     68  59  73 SW3       29.98R
FRONT ROYAL*   FAIR      64  57  77 S7        29.97S
LURAY*         FAIR      63  61  94 SW3       30.01R
$$

VAZ048-049-060>072-079>083-021300-
CENTRAL AND SOUTH CENTRAL VIRGINIA

CITY           SKY/WX    TMP DP  RH WIND       PRES   REMARKS
RICHMOND       PTSUNNY   74  60  61 N7        29.94S
CHESTERFIELD*  FAIR      72  57  60 NW6       29.96S
PETERSBURG*    MOSUNNY   73  69  90 NW3       29.96R
HANOVER        PTSUNNY   70  63  78 NW3       29.97R
TAPPAHANNOCK*  PTSUNNY   73  63  71 CALM      29.94F
QUINTON*       FAIR      71  63  77 NW3       29.93S
CHARLOTTSVILLE PTSUNNY   66  58  75 CALM      29.98R
GORDONSVILLE*  PTSUNNY   64  63  94 CALM      29.97R
ORANGE*        PTSUNNY   66  64  94 CALM      29.98S
LOUISA*        PTSUNNY   66  63  88 CALM      29.96R
BUMPASS*       FAIR      67  63  87 CALM      29.97R
FARMVILLE*     MOSUNNY   65  65  99 CALM      29.97R
CREWE*         FAIR     N/A N/A N/A NW5       29.97R
FORT PICKETT*  FAIR      71  58  63 NW10      29.97R
CHASE CITY*    FAIR      67  64  87 CALM      29.98R
CLARKSVILLE*   FAIR      68  61  77 NW3       29.97S
SOUTH HILL*    MOSUNNY   70  60  71 N6        30.02S
LAWRENCEVILLE* FAIR      72  63  73 NW3       29.96R
EMPORIA*       MOSUNNY   70  63  78 W3        29.96R
$$

VAZ088>098-021300-
SOUTHEAST VIRGINIA

CITY           SKY/WX    TMP DP  RH WIND       PRES   REMARKS
NORFOLK        SUNNY     82  72  71 CALM      29.90S
VIRGINIA BEACH PTSUNNY   80  74  81 W3        29.90R
NORFOLK NAVAL  MOSUNNY   79  71  76 NW5       29.92R
WEST POINT*    MOSUNNY   75  66  75 NW3       29.94R
SALUDA*        FAIR      76  68  75 NW7       29.92R
NEWPORT NEWS   SUNNY     78  67  68 N5        29.91S
LANGLEY AFB    MOSUNNY   73  70  88 NW5       29.87S
FORT EUSTIS    SUNNY     78  64  60 N5        29.90R
WILLIAMSBURG*  SUNNY     75  70  83 N6        29.93S
HR EXEC AP*    FAIR      72  70  94 CALM      29.94R
FRANKLIN*      SUNNY     71  67  86 NW3       29.93S
WAKEFIELD      SUNNY     74  65  73 CALM      29.93R
$$

VAZ020-022-025-037-045-021300-
WEST CENTRAL AND SOUTHWEST VIRGINIA

CITY           SKY/WX    TMP DP  RH WIND       PRES   REMARKS
STAUNTON*      MOSUNNY   61  58  90 CALM      30.05R
WAYNESBORO*    FAIR      60  56  85 S9        30.03R
HOT SPRINGS VA MOSUNNY   62  53  72 N5        30.10S
LYNCHBURG      MOSUNNY   63  60  90 CALM      30.01R
DANVILLE       MOSUNNY   66  62  87 SW3       29.99R
SOUTH BOSTON*  FAIR      63  61  95 CALM      29.98S
MARTINSVILLE   SUNNY     64  64  99 CALM      30.04R
ROANOKE        MOSUNNY   65  57  75 CALM      30.04R
BLACKSBURG     SUNNY     62  60  92 CALM      30.09R
DUBLIN*          N/A     64  60  89 CALM      30.08S
MARION*        SUNNY     59  57  92 CALM      30.11S
HILLSVILLE*    SUNNY     61  57  87 S3        30.08R
RICHLANDS*     FAIR      61  60  96 CALM      30.08S
WISE*          MOSUNNY   64  55  72 CALM      30.10R
ABINGDON*      SUNNY     65  60  85 CALM      30.07R
$$

MDZ021>025-VAZ099-100-021300-
SOUTHERN MARYLAND AND THE DELMARVA PENINSULA

CITY           SKY/WX    TMP DP  RH WIND       PRES   REMARKS
PATUXENT RIVER PTSUNNY   76  64  66 NW9       29.93R
BAY BRIDGE APT   N/A     75  63  64 NW5       29.94R
LEONARDTOWN    MOSUNNY   72  63  73 CALM      29.95R
DOVER          PTSUNNY   72  65  78 NW5       29.91R
GEORGETOWN     PTSUNNY   73  64  73 N5        29.93R
EASTON         NOT AVBL
CAMBRIDGE      SUNNY     77  63  61 N6        29.92S
SALISBURY      SUNNY     75  65  70 N5        29.92R
OCEAN CITY     SUNNY     76  68  76 MISG      29.91S
WALLOPS ISLAND MOSUNNY   76  69  79 N6        29.92R
ACCOMACK*      MOSUNNY  N/A N/A N/A N3        29.91S
$$

NCZ012>017-030>032-021300-
NORTH CENTRAL AND EASTERN NORTH CAROLINA

CITY           SKY/WX    TMP DP  RH WIND       PRES   REMARKS
ROANOKE RAPIDS FAIR      70  63  78 N5        29.94S
RALEIGH        PTSUNNY   73  62  68 CALM      29.97R
ELIZABETH CITY SUNNY     75  73  93 W3        29.91S
AHOSKIE*       MOSUNNY   70  64  81 CALM      29.93S
EDENTON*       SUNNY     76  69  79 CALM      29.92S
CURRITUCK*     SUNNY     75  72  90 W3        29.92S
KILL DEVIL HLS SUNNY     80  75  84 W7        29.90R
MANTEO         SUNNY     78  76  92 NW5       29.91R
CAPE HATTERAS  SUNNY     81  73  76 NW8       29.92R
TARBORO*         N/A     70  66  87 CALM      29.94F
GOLDSBORO      SUNNY     74  65  73 N7        29.92R
WASHINGTON     MOSUNNY   73  72  98 CALM      29.93S FOG
GREENVILLE     SUNNY     73  68  83 N3        29.95S
NEW BERN       SUNNY     78  73  84 NW5       29.93S
WILMINGTON     CLOUDY    77  73  87 W6        29.93R
$$

VAZ048-021300-
ELSEWHERE

CITY           SKY/WX    TMP DP  RH WIND       PRES   REMARKS
HARRISBURG PA  MOSUNNY   69  59  70 N3        29.94R
BALTIMORE      PTSUNNY   70  61  73 W5        29.94R
ANNAPOLIS      PTSUNNY   74  64  71 NW3       29.93R
ANDREWS AFB    MOSUNNY   74  61  61 NW5       29.94R
PHILADELPHIA   MOSUNNY   75  58  55 W3        29.93R
HENDERSON NC   MOSUNNY   69  58  68 N5        29.97S
GREENSBORO     PTSUNNY   70  57  63 NE5       29.99S
ROCKY MOUNT    SUNNY     76  61  59 N9        29.94S
$$

VAZ100-021300-
MARINE

STATION/POSITION TIME  TEMP    WIND        PRES    WAVE   SWELL
                       AIR SEA DIR/SP/G            HT/PER HT/PER
                 (UTC) (F)     (DEG/KT/KT) (MB)    (FT/S) (FT/S)
BRANDYWINE LGT   1100   78 76  360/ 14/ 15 1012.9R
CAPE MAY NJ      1100   79 74  350/  4/  7 1012.4R
LEWES DE         1100   76 72  320/  5/  5 1012.7R
15NM E FENWICK I 1150   78 79   CALM  /  2 1013.0R   3/ 8   3/ 8
OCEAN-CITY-INLET 1100   74 77   CALM  /  1 1011.9R
WACHAPREAGUE VA  1100   76 83   CALM  /  3 1012.6
GOOSES REEF MD   1200   78 82  350/  8/ 10 1014.6R
COVE POINT MD    1100   77     350/  9/ 11 1013.7R
SOLOMONS ISLAND  1100      83                N/A
BISHOPS HEAD MD  1100   75 82   20/  5/  5 1011.8R
PINEY POINT MD   1100          360/  7/  8   N/A
POTOMAC MD       1200   79 82   10/  8/ 10 1012.1R   0
CAMBRIDGE MD     1100   76 85   10/  6/  7 1012.2R
LEWISETTA VA     1100   78 83  360/  6/  9 1012.7R
RAPPAHANNOCK LGT 1100           60/  9/ 12 1013.0R
STINGRAY PT      1200   82 83   30/ 12/ 14 1012.9R   2/ 3
YORK RVR RNG VA  1100   79     360/ 12/ 13 1012.0R
YORKTOWN VA      1100   77 83  330/  7/ 10 1012.4R
JAMESTOWN VA     1200   76 85  330/  4/  8   N/A
DOMINION TERM VA 1100   79     340/  2/  4 1012.4R
KIPTOPEKE VA     1100      81   20/  2/  4   N/A
CHES BAY BRIDGE  1100   80 80  350/  8/  9 1011.9R
CAPE HENRY VA    1100   80     340/  7/  8   N/A
CHESAPEAKE LGHT  1100   79     270/  6/  7 1013.0R
WILLOUBY STN VA  1100   78     350/  4/  5 1013.4R
CAPE HENRY BUOY  1128      79                N/A     2/11   2/11
1ST LANDING BUOY 1200      81              1012.2R   2/ 5
CAPE CHARLES BUO 1126      72                N/A     2/11   2/11
OFFSHORE WE BUOY 1111      81                N/A     3/ 7   3/ 7
64NM E OF VA BCH 1150   81 81  290/  6/  6 1012.0S   3/11   3/11
DUCK PIER NC     1100   78 75  270/  6/  7 1011.7R
44100 DUCK FRF   1124      81                N/A     2/ 8
44056 DUCK FRF   1111      78                N/A     1/13   2/13
OREGON INLET NC  1100   77 81  280/  9/ 11 1012.4R
HATTERAS NC      1100   81 81  270/  8/  9 1012.6R
DIAMOND SHLS NC  1150   81 85  270/  8/ 10 1013.1R   3/ 7   3/ 7
CAPE LOOKOUT NC  1200   82     290/  7/  9 1012.8R



USA.gov is the U.S. government's official web portal to all federal, state and local government web resources and services.